Location: Chervonnoye
(48.6000°N, 34.4000°E)
Time: 11:37:23
(UTC+00:00)

KAITUO 1B - Pass Details

Date: 03 December 2021
Orbit: 486 x 507 km, 97.4° (Epoch: 28 January)

Event Time Altitude Azimuth Distance (km) Brightness Sun altitude
Rises 15:49:35 0° 186° (S) 2,591 ? -19.2°
Reaches altitude 10° 15:51:46 10° 196° (SSW) 1,716 ? -19.6°
Maximum altitude 15:55:11 35° 263° (W) 844 ? -20.1°
Drops below altitude 10° 15:58:38 10° 330° (NNW) 1,739 ? -20.7°
Sets 16:00:53 0° 340° (NNW) 2,633 ? -21.1°
